C/2017 S2 ( PanSTARRS )

Japanese version
Home page
Updated on November 7, 2017

---------------------------------------------------------------------

* Profile

Discovery Date September 16, 2017
Magnitude 20.9 mag
Discoverer Pan-STARRS 1 telescope (Haleakala)

* Pictures

* Orbital Elements

Epoch 2017 Sept. 4.0 TT = JDT 2458000.5
T 2017 Aug. 28.60167 TT                                 MPCW
q   3.6139792            (2000.0)            P               Q
n   0.01062347     Peri.  305.80987     +0.97210095     -0.13095815
a  20.4939274      Node    62.44683     +0.21095705     +0.85083118
e   0.8236561      Incl.   12.67945     -0.10255182     +0.50885780
P  92.78
From 43 observations 2017 Aug. 22-Sept. 29, mean residual 0".4.

* Magnitudes Graph

        m1 = 12.5 + 5 log d + 10.0 log r

---------------------------------------------------------------------

The orbital elements are published on M.P.E.C. 2017-T14.
The magnitudes graphs are made with Comet for Windows.

---------------------------------------------------------------------

Copyright(C) Seiichi Yoshida (comet@aerith.net). All rights reserved.